WESTFORD NEEDLES, 628

Orbit data source: Space-Track

WESTFORD NEEDLES, 628 is space debris in LEO originally from a launch on Thu, 09 May 1963 UTC launched from the Air Force Western Test Range (AFWTR). Debris objects in space refer to the collection of defunct objects orbiting the Earth. Examples of debris include non-operational satellites, rocket bodies, and fragments generated from explosions, collisions, or faulty payload assembly.

Loading next visibility...
Identifier
628, 1963-014F
Orbit
LEO
Country
Flag of USUS
Related business
Manufacturer
Unknown
Mission
Spacecraft
Bus & Motor
Unknown
Mass
~10 kg wet, ~10 kg dry
Launch date (UTC)
1963-05-09 (63 years ago)
Launch vehicle
Unknown
Launch site
Air Force Western Test Range (AFWTR)
Object type
Payload
Rocket body
Debris
Shape & HBR
Unknown
Radar Cross Section
Medium (>0.1 m² and <1 m²)

Expand to show TLE details & history
Last TLE update: 2 weeks ago

TLE from 2 weeks ago
0 WESTFORD NEEDLES
1 00628U 63014F   26151.55327405  .00000003  00000-0  00000-0 0  9999
2 00628  87.3453 204.8478 0022040 163.7553 196.4010  8.63374446987526
Epoch: 2026-05-31T13:16Z
TLE epoch observation values (Epoch: 2026-05-31T13:16:42.877Z)
Latitude
-0.00008°
Longitude
116.61584°
Altitude
3,682.238 km
Speed
6.289 km/s
True Right ascension
13h 39m 23s
True Declination
0° 00' 00"
Sunlit
Object was in daylight at epoch
Visualization orbit readout
Latitude
Unknown
Longitude
Unknown
Altitude
Unknown
Speed
Unknown
Apparent Right ascension
Unknown
Apparent Declination
Unknown
Sunlit
N/A
Visualization observer readout
Local Sidereal Time
05:40:42
Azimuth
Unknown
Elevation
Unknown
Doppler factor
Unknown
Orbital elements
Apogee altitude
3,678.771 km
Perigee altitude
3,634.537 km
Semi-major axis
10,034.791 km
Eccentricity
0.0022
Inclination
87.3453°
RAAN
204.8478°
Arg. of periapsis
163.7553°
True anomaly
196.32988°
Mean anomaly
196.401°
Eccentric anomaly
196.36542°
Mean motion
2.15914 °/min
Orbital period
166.73 mins
BSTAR
0
Loading maneuver chart data...
Computing Atmospheric mass density...

Documentation

Showing up to 5 results
|